Regional Weather Roundup
Issued by NWS Cleveland, OH

Home | Current Version | Previous Version | Graphics & Text | Print | Product List | Glossary On
Versions: 1 2 3 4 5 6 7 8 9 10 11 12 13 14 15 16 17 18 19 20 21 22 23 24 25 26 27 28 29 30 31 32 33 34 35 36 37 38 39 40 41 42 43 44 45 46 47 48 49 50
984
ASUS41 KCLE 232102
RWRCLE
OHIO REGIONAL WEATHER ROUNDUP
NATIONAL WEATHER SERVICE CLEVELAND, OH
500 PM EDT FRI JUN 23 2017

NOTE: "FAIR" INDICATES FEW OR NO CLOUDS BELOW 12,000 FEET WITH NO
SIGNIFICANT WEATHER AND/OR OBSTRUCTIONS TO VISIBILITY.

OHZ001>008-015>018-024>027-034-035-043-044-232200-
   NORTHWEST OHIO

CITY           SKY/WX    TMP DP  RH WIND       PRES   REMARKS
DEFIANCE       CLOUDY    72  65  78 W7        29.66F
FINDLAY        CLOUDY    71  65  81 SW12      29.65F
TOLEDO EXPRESS LGT RAIN  70  70 100 SW9       29.64S
TOLEDO EXEC    LGT RAIN  73  69  87 SW15      29.65R
LIMA           CLOUDY    69  67  93 SW13      29.69F
$$

OHZ009>014-019>023-028>033-038-089-232200-
   NORTHEAST OHIO

CITY           SKY/WX    TMP DP  RH WIND       PRES   REMARKS
CLE-HOPKINS    CLOUDY    76  70  82 SW15      29.65R
CLE-LAKEFRONT  CLOUDY    75  69  81 SW12      29.62R
CUY CO. ARPT   CLOUDY    75  70  83 W9        29.63S
LORAIN-ELYRIA  CLOUDY    74  65  73 W13       29.65R
ASHTABULA      CLOUDY    74  71  91 SW13      29.61F
AKRON-CANTON   LGT RAIN  71  67  87 SW9       29.68R
WOOSTER        PTSUNNY   71  68  90 SW12      29.68R
MANSFIELD      CLOUDY    71  70  96 SW13      29.69S
YOUNGSTOWN     LGT RAIN  71  68  90 SW14      29.65R
$$

OHZ042-051>053-060>062-070>072-077>081-232200-
  SOUTHWEST OHIO

CITY           SKY/WX    TMP DP  RH WIND       PRES   REMARKS
CINC-COVINGTON TSTM      69  68  96 S3        29.71S VSB 1
CINC-LUNKEN    HVY RAIN  68  67  96 CALM      29.73S FOG
HAMILTON       RAIN      69  69 100 CALM      29.72S FOG
DAYTON         LGT RAIN  68  67  96 SW8       29.73S
WRIGHT-PAT AFB LGT RAIN  69  69 100 SW3       29.72S FOG
DAYTON GENERAL RAIN      68  66  93 W5        29.71F FOG
WILMINGTON     RAIN      67  67 100 S3        29.72F FOG
$$

OHZ036-037-039>041-045>050-054>059-063>069-073>076-082>088-232200-
  CENTRAL AND SOUTHEAST OHIO

CITY           SKY/WX    TMP DP  RH WIND       PRES   REMARKS
COLUMBUS       LGT RAIN  71  70  96 SW8       29.69F
OSU AIRPORT    LGT RAIN  70  69  97 SW8       29.69F
BOLTON FIELD   NOT AVBL
RICKENBACK AFB LGT RAIN  68  68 100 SW10      29.70F
NEWARK         LGT RAIN  70  68  93 S7        29.67F
MARION         LGT RAIN  69  67  93 W13G21    29.68F
LANCASTER      RAIN      68  67  96 S9        29.70F FOG
ZANESVILLE     LGT RAIN  72  68  87 W10       29.70S
NEW PHILLY     NOT AVBL
$$




USA.gov is the U.S. government's official web portal to all federal, state and local government web resources and services.